Content
SEND FEEDBACK

Daily
Averages
Monthly
Summary
United States of America

GRASS VALLEY, CALIFORNIA


Home > North America > United States > California
Elevation: 2628 feet     Latitude: 39 16N     Longitude: 121 02W

WEATHER
 
SELECT A DAY
Number of Records: 62,511;   Date Range: 9/21/11 - 9/17/14
 
SHARE

PRINT THIS DATA

[ ← Previous Day ]
WEATHER ALMANAC - JUNE 29, 2013
[ Next Day → ]
[ °C ]   °F
We're sorry. There is no daily almanac available for Grass Valley, California on June 29, 2013.
WEATHER BY HOUR - JUNE 29, 2013
[ °C ]   °F
Local TimeTemperatureDewpointHumidityBarometerVisibilityWind DirectionWind SpeedGust SpeedPrecipitationEventsConditions
12:35 AM77.0 °F46.4 °F34 %30.09 in10.0 miCalmClear
12:55 AM77.0 °F44.6 °F32 %30.09 in10.0 miCalmClear
1:15 AM77.0 °F44.6 °F32 %30.09 in10.0 miCalmClear
1:35 AM77.0 °F46.4 °F34 %30.09 in10.0 miCalmClear
1:55 AM77.0 °F48.2 °F36 %30.08 in10.0 miCalmClear
2:15 AM75.2 °F51.8 °F44 %30.08 in10.0 miCalmClear
2:35 AM75.2 °F53.6 °F47 %30.08 in10.0 miCalmClear
2:55 AM75.2 °F51.8 °F44 %30.07 in10.0 miCalmClear
3:15 AM75.2 °F50.0 °F41 %30.07 in10.0 miCalmClear
3:35 AM77.0 °F50.0 °F39 %30.07 in10.0 miENE (70°)3.5 mphClear
3:55 AM77.0 °F51.8 °F41 %30.07 in10.0 miCalmClear
4:15 AM77.0 °F50.0 °F39 %30.06 in10.0 miNE (50°)6.9 mphClear
4:35 AM77.0 °F48.2 °F36 %30.06 in10.0 miENE (60°)3.5 mphClear
4:55 AM77.0 °F46.4 °F34 %30.06 in10.0 miCalmClear
5:15 AM77.0 °F44.6 °F32 %30.06 in10.0 miCalmClear
5:35 AM77.0 °F42.8 °F29 %30.06 in10.0 miCalmClear
5:55 AM77.0 °F41.0 °F28 %30.06 in10.0 miCalmClear
6:15 AM75.2 °F46.4 °F36 %30.06 in10.0 miCalmClear
6:35 AM77.0 °F50.0 °F39 %30.06 in10.0 miCalmClear
6:55 AM77.0 °F53.6 °F44 %30.06 in10.0 miCalmClear
7:15 AM77.0 °F55.4 °F47 %30.06 in10.0 miCalmClear
7:35 AM78.8 °F55.4 °F44 %30.06 in10.0 miCalmClear
7:55 AM82.4 °F57.2 °F42 %30.06 in10.0 miCalmClear
8:15 AM82.4 °F59.0 °F45 %30.07 in10.0 miCalmClear
8:35 AM84.2 °F53.6 °F35 %30.07 in10.0 miCalmClear
8:55 AM84.2 °F55.4 °F37 %30.07 in10.0 miCalmClear
9:15 AM84.2 °F53.6 °F35 %30.07 in10.0 miCalmClear
9:35 AM84.2 °F55.4 °F37 %30.07 in10.0 miCalmClear
9:55 AM86.0 °F53.6 °F33 %30.07 in10.0 miCalmClear
10:15 AM86.0 °F53.6 °F33 %30.07 in10.0 miCalmClear
10:35 AM87.8 °F53.6 °F31 %30.07 in10.0 miCalmClear
10:55 AM89.6 °F51.8 °F27 %30.07 in10.0 miWest (280°)4.6 mphClear
11:15 AM89.6 °F57.2 °F33 %30.07 in10.0 miWest (270°)3.5 mphClear
11:35 AM89.6 °F57.2 °F33 %30.07 in10.0 miCalmClear
11:55 AM89.6 °F57.2 °F33 %30.07 in10.0 miWest (280°)5.8 mphClear
12:15 PM89.6 °F55.4 °F31 %30.07 in10.0 miWest (270°)4.6 mphClear
12:35 PM91.4 °F53.6 °F28 %30.07 in10.0 miWNW (290°)6.9 mphClear
12:55 PM91.4 °F53.6 °F28 %30.06 in10.0 miWNW (300°)5.8 mphClear
1:15 PM91.4 °F50.0 °F24 %30.06 in10.0 miNW (310°)3.5 mphClear
1:35 PM93.2 °F48.2 °F21 %30.06 in10.0 miNW (320°)5.8 mphClear
1:55 PM93.2 °F50.0 °F23 %30.06 in10.0 miCalmClear
2:15 PM91.4 °F48.2 °F23 %30.05 in10.0 miWNW (300°)4.6 mphClear
2:35 PM93.2 °F48.2 °F21 %30.05 in10.0 miNorth (360°)6.9 mphClear
2:55 PM93.2 °F48.2 °F21 %30.04 in10.0 miCalmClear
3:15 PM93.2 °F48.2 °F21 %30.04 in10.0 miWNW (300°)5.8 mphClear
3:35 PM95.0 °F50.0 °F22 %30.03 in10.0 miNW (310°)8.1 mphClear
3:55 PM93.2 °F48.2 °F21 %30.03 in10.0 miWNW (290°)5.8 mphClear
4:15 PM93.2 °F48.2 °F21 %30.02 in10.0 miWest (270°)9.2 mphClear
4:35 PM93.2 °F46.4 °F20 %30.02 in10.0 miWNW (290°)8.1 mphClear
4:55 PM93.2 °F46.4 °F20 %30.01 in10.0 miCalmClear
5:15 PM93.2 °F46.4 °F20 %30.01 in10.0 miWNW (300°)5.8 mphClear
5:35 PM93.2 °F46.4 °F20 %30.00 in10.0 miWest (280°)9.2 mphClear
5:55 PM93.2 °F48.2 °F21 %30.00 in10.0 miWNW (300°)8.1 mphClear
6:15 PM93.2 °F48.2 °F21 %29.99 in10.0 miWNW (300°)5.8 mphClear
6:35 PM91.4 °F50.0 °F24 %29.99 in10.0 miNW (320°)3.5 mphClear
6:55 PM91.4 °F50.0 °F24 %29.99 in10.0 miNW (310°)6.9 mphClear
7:15 PM91.4 °F50.0 °F24 %29.99 in10.0 miNW (310°)5.8 mphClear
7:35 PM89.6 °F50.0 °F26 %29.99 in10.0 miWNW (300°)4.6 mphClear
7:55 PM89.6 °F50.0 °F26 %29.99 in10.0 miCalmClear
8:15 PM87.8 °F50.0 °F27 %29.99 in10.0 miCalmClear
8:35 PM86.0 °F50.0 °F29 %30.00 in10.0 miNorth (360°)3.5 mphClear
8:55 PM84.2 °F50.0 °F30 %30.00 in10.0 miCalmClear
9:15 PM82.4 °F50.0 °F32 %30.00 in10.0 miCalmClear
9:35 PM82.4 °F51.8 °F35 %30.00 in10.0 miCalmClear
9:55 PM82.4 °F50.0 °F32 %30.01 in10.0 miCalmClear
10:15 PM82.4 °F50.0 °F32 %30.01 in10.0 miCalmClear
10:35 PM82.4 °F50.0 °F32 %30.01 in10.0 miCalmClear
10:55 PM80.6 °F50.0 °F34 %30.01 in10.0 miCalmClear
11:15 PM80.6 °F50.0 °F34 %30.01 in10.0 miCalmClear
11:35 PM82.4 °F50.0 °F32 %30.01 in10.0 miCalmClear
11:55 PM82.4 °F50.0 °F32 %30.00 in10.0 miCalmClear
Hourly data recorded from KGOO, located miles away from Grass Valley, California







STORIES FROM OUR PARTNERS